Find Kosmos-1879

NORAD ID: 18338 Int'l Des: 1987-074 Owner: UNKS Country: SU operational
LEOCIRCULARPOLAR

Live Position

Loading 3D Globe...

About Kosmos-1879

Description loading...

Upcoming Passes

Passes for default location (London). Set your location on the main map for personalized predictions.

Altitude History

Loading altitude history...

Two-Line Element Set

1 18338U 87074E 26111.82643286 .00000006 00000-0 -26708-4 0 9993
2 18338 82.5699 319.3794 0005985 341.0941 30.0097 12.65027009782939
Epoch: Apr 21, 2026 • Age: 7 hours

Current Status

Altitude 1424.0 km
Velocity 7.15 km/s
Sub-Earth Point -52.71°S, 101.67°W
Launch Date Sep 7, 1987
Age 38.6 years
Type other

Technical Details

Classification Payload
Mass 225.00 kg
Dry Mass 225.00 kg
Total Mass 225.00 kg
Length 1.60 m
Diameter 0.80 m
Span 7.00 m
Shape Cyl + Ant
Manufacturer NPOPM
Bus Type Strela-3
Phase Status In Orbit
Owner/State UNKS/SU

Most Searched